[Iaude] MPEC Y62: 2020 VE7 [a=1.98,e=0.50,i=2.2,H=25.4]

mpec at marsden.cfa.harvard.edu mpec at marsden.cfa.harvard.edu
Sun Dec 20 10:33:38 EST 2020


M.P.E.C. 2020-Y62                             Issued 2020 December 20, 15:32 UT

     The Minor Planet Electronic Circulars contain information on unusual
         minor planets and routine data on comets.  They are published
    on behalf of Division F of the International Astronomical Union by the
          Minor Planet Center, Smithsonian Astrophysical Observatory,
                          Cambridge, MA 02138, U.S.A.

             Prepared using the Tamkin Foundation Computer Network

                              MPC at CFA.HARVARD.EDU
            URL https://www.minorplanetcenter.net/    ISSN 1523-6714

                                    2020 VE7                                    


Observations:
     K20V07E* C2020 11 05.27071900 23 42.043+02 14 29.14         22.26wUEY062F51
     K20V07E  C2020 11 05.28111600 23 41.192+02 14 38.07         22.21wUEY062F51
     K20V07E  C2020 11 05.29181300 23 40.289+02 14 47.46         22.20wUEY062F51
     K20V07E  C2020 12 19.45705011 44 06.72 +46 42 55.1          21.39GVEY062G96
     K20V07E  C2020 12 19.46230011 44 06.53 +46 42 04.6          21.46GVEY062G96
     K20V07E  C2020 12 19.46755811 44 06.41 +46 41 14.9          21.41GVEY062G96
     K20V07E  C2020 12 19.47281311 44 06.23 +46 40 23.6          21.86GVEY062G96
     K20V07E mC2020 12 19.53958411 44 03.65 +46 29 31.8          21.30GVEY062G96
     K20V07E mC2020 12 19.54004911 44 03.63 +46 29 27.2          20.91GVEY062G96
     K20V07E mC2020 12 19.54051311 44 03.62 +46 29 22.4          21.09GVEY062G96
     K20V07E mC2020 12 20.47723811 44 55.78 +44 03 14.8          21.11GVEY062G96
     K20V07E mC2020 12 20.47781711 44 55.71 +44 03 09.6          21.29GVEY062G96
     K20V07E mC2020 12 20.47839711 44 55.74 +44 03 04.8          21.06GVEY062G96

Observer details:
F51 Pan-STARRS 1, Haleakala.  Observers J. Bulger, T. Lowe, A. Schultz, M.
    Willman.  Measurers K. Chambers, S. Chastel, T. de Boer, L. Denneau, J.
    Fairlamb, H. Flewelling, M. Huber, C.-C. Lin, E. Magnier, Y. Ramanjooloo,
    R. Wainscoat, R. Weryk.  1.8-m Ritchey-Chretien + CCD.
G96 Mt. Lemmon Survey.  Observer D. Rankin.  Measurers E. J. Christensen, G.
    A. Farneth, D. C. Fuls, A. R. Gibbs, A. D. Grauer, H. Groeller, R. A.
    Kowalski, S. M. Larson, G. J. Leonard, T. A. Pruyne, D. Rankin, R. L.
    Seaman, F. C. Shelly, K. W. Wierzchos.  1.5-m reflector + 10K CCD.

Orbital elements:
2020 VE7                                                 Earth MOID = 0.0259 AU
Epoch 2020 Dec. 17.0 TT = JDT 2459200.5                 Veres
M   1.04381              (2000.0)            P               Q
n   0.35271051     Peri.   43.60434     +0.12294867     -0.99212753
a   1.9839183      Node    39.35115     +0.89991253     +0.10134518
e   0.4978690      Incl.    2.15141     +0.41837909     +0.07356716
P   2.79           H   25.4           G   0.15           U   7
Residuals in seconds of arc
201105 F51  0.1-  0.0     201219 G96  0.1+  0.7+    201220 G96  0.1+  0.1+
201105 F51  0.1+  0.1-    201219 G96  0.1-  0.1+    201220 G96  0.4-  0.1-
201105 F51  0.0   0.1+    201219 G96  0.0   0.0     201220 G96  0.2+  0.0
201219 G96  0.2+  0.2-    201219 G96  0.0   0.0
201219 G96  0.2-  0.3-    201219 G96  0.1+  0.2-

Ephemeris:
2020 VE7                 a,e,i = 1.98, 0.50, 2                   q = 0.9962
Date    TT    R. A. (2000) Decl.     Delta      r    Elong.  Phase     V
2020 11 20    00 12 28.9 +09 33 01   0.07666 1.0375   128.4    48.2    21.7
...
2020 12 05    00 16 54.6 +46 26 55   0.03149 1.0022   121.4    57.1    20.0
...
2020 12 13    11 09 48.5 +75 12 44   0.02917 0.9963   113.1    65.4    20.0
...
2020 12 19    11 43 28.0 +48 01 19   0.04311 0.9980   107.9    69.7    21.0
2020 12 20    11 44 27.3 +45 15 00   0.04601 0.9988   107.8    69.7    21.2
2020 12 21    11 45 09.9 +42 48 49   0.04900 0.9998   107.7    69.6    21.3
...
2020 12 27    11 46 20.7 +32 56 21   0.06796 1.0085   109.9    66.5    21.9
...
2021 01 04    11 43 55.5 +26 17 20   0.09418 1.0279   115.9    59.4    22.5
...
2021 01 19    11 30 53.9 +20 59 03   0.1440  1.0852   131.8    42.5    23.0

M. P. C. Staff               (C) Copyright 2020 MPC           M.P.E.C. 2020-Y62




More information about the Iaude mailing list